Theta_e
316 316 315 315 315 314 313 312 310 307 309 311 310 314 313 313 314 312 312 315 311 311 311 311 311 312 313 314 314 314 314 314 315 315 315 315 315 316
316 315 315 314 314 314 313 312 311 309 306 311 311 313 313 310 313 311 312 312 314 312 311 310 310 311 311 311 312 312 312 312 312 312 312 311 312 313
315 315 314 314 313 313 312 312 310 310 306 310 312 313 311 311 311 312 312 310 310 313 309 308 307 308 309 309 309 308 307 307 308 308 308 308 309 309
315 313 313 312 312 313 312 310 310 310 308 306 310 310 310 311 311 310 309 308 307 310 307 307 307 307 307 305 305 305 305 304 303 304 305 306 306 307
315 314 312 312 311 311 311 310 310 309 309 307 306 309 310 310 309 309 307 307 305 308 309 308 308 308 306 304 304 304 301 301 302 303 304 304 305 307
315 314 313 312 311 311 311 310 310 309 308 306 305 306 307 309 308 305 304 305 303 303 306 307 305 306 305 304 303 300 299 301 301 301 301 302 302 303
314 314 314 313 315 314 311 310 309 308 307 305 304 305 306 306 305 306 302 303 300 302 301 300 298 298 300 302 302 300 299 300 300 300 300 300 301 302
313 313 313 313 314 315 316 314 311 308 306 305 306 305 306 307 306 304 301 296 295 302 297 295 297 297 299 298 301 300 298 299 299 299 299 299 300 300
314 313 312 310 311 310 313 314 311 313 312 309 306 306 306 307 306 301 297 296 296 298 295 292 296 296 298 297 300 299 298 298 298 298 298 298 300 300
315 314 313 311 309 309 308 307 307 307 309 309 309 310 308 307 305 303 300 297 296 297 297 290 296 293 296 295 300 298 297 297 297 296 297 298 300 299
315 315 314 312 311 310 308 307 307 308 312 312 309 306 305 303 304 301 296 293 292 293 296 291 292 291 292 293 296 299 298 297 296 296 296 297 298 298
314 314 311 312 312 310 308 308 306 307 306 304 304 303 303 300 300 297 295 291 291 290 294 289 290 289 286 292 292 293 293 295 294 295 295 297 297 294
310 312 312 311 312 310 309 308 306 308 307 303 302 301 299 298 295 295 295 293 291 290 294 291 289 287 287 286 288 290 290 289 290 292 294 296 296 296
310 311 312 309 310 309 308 309 311 309 306 302 301 299 298 296 295 294 294 294 293 292 293 292 288 286 287 285 283 287 287 289 290 290 290 293 296 296
311 311 310 309 309 309 308 308 308 304 302 299 299 298 298 297 295 294 293 293 293 293 293 291 290 289 288 285 283 285 285 287 289 289 289 289 290 291
310 310 309 307 307 307 306 307 304 302 301 300 299 299 297 294 292 292 291 291 290 290 293 292 290 288 286 286 286 285 286 284 288 288 288 288 290 290
309 309 305 304 303 303 304 304 303 302 300 300 298 296 292 291 290 291 291 290 288 287 287 289 289 289 287 286 283 285 286 287 288 287 286 285 287 289
307 306 302 303 302 302 302 302 301 301 300 298 296 294 291 290 290 290 290 288 287 287 286 287 286 284 284 286 290 285 285 285 286 287 286 284 284 286
306 305 302 302 302 302 301 300 299 299 298 296 294 292 291 290 290 289 289 288 287 287 287 287 285 284 281 279 284 290 283 284 285 285 286 285 284 285
306 305 303 303 303 302 300 300 300 297 295 294 293 292 291 289 288 288 288 287 287 287 286 286 285 284 283 281 281 284 289 284 285 285 285 287 288 291
305 305 305 304 303 302 300 300 298 296 294 293 292 291 290 289 288 288 288 289 288 287 284 284 285 289 287 287 282 282 285 288 288 286 285 284 284 284
304 305 305 304 302 301 299 298 296 294 293 292 291 290 290 290 288 288 288 287 286 285 285 286 287 286 285 283 281 282 283 285 288 290 290 290 285 281
303 304 304 303 301 300 298 296 294 292 292 291 290 290 290 289 289 289 288 288 287 286 285 283 285 285 284 283 283 281 284 284 284 284 285 290 291 291
Wind_Speed
9 9 7 6 5 5 5 5 4 2 2 5 3 5 3 3 2 4 5 0 6 8 10 11 13 14 14 15 15 16 17 17 19 20 21 23 24 25
8 10 9 7 7 5 5 5 5 4 3 2 3 5 2 3 4 4 5 4 9 8 7 9 13 14 13 13 13 14 16 18 20 21 22 24 24 25
10 10 11 10 7 6 6 6 6 6 6 4 3 2 5 3 4 3 4 4 3 4 6 11 14 12 11 12 13 16 18 19 20 21 22 22 24 25
13 11 12 9 10 9 7 8 7 7 6 8 4 3 3 3 4 4 4 5 3 5 6 12 10 9 12 15 15 15 16 16 18 21 22 23 25 25
13 14 13 12 12 9 9 8 8 6 7 5 5 3 3 3 4 3 4 4 4 6 8 8 7 11 13 13 11 12 13 16 17 18 19 20 23 24
14 14 14 15 14 13 11 11 9 8 7 6 6 5 4 4 2 4 4 3 4 7 7 6 11 11 12 7 9 8 12 14 18 20 20 22 24 24
14 14 15 16 18 15 10 11 11 9 7 7 7 6 5 3 4 1 3 3 5 5 3 4 6 6 5 5 5 12 11 13 20 19 21 20 22 22
15 15 14 15 15 19 14 13 13 11 11 8 7 7 7 5 3 2 1 2 3 2 4 7 6 5 4 3 10 14 11 13 19 19 20 21 23 23
17 15 14 12 15 13 15 14 11 12 11 8 9 8 6 5 5 4 3 5 5 2 3 7 3 5 4 6 13 11 9 15 17 19 19 22 21 21
18 17 16 16 16 16 15 14 14 12 12 8 7 5 3 3 4 3 1 2 3 4 2 4 2 4 5 6 13 3 9 14 16 20 20 20 21 21
17 18 17 16 20 24 16 15 14 12 13 15 6 6 9 7 3 4 4 4 2 2 2 2 2 5 4 5 3 4 14 16 17 21 18 18 21 21
15 16 19 19 22 28 17 14 13 12 11 8 6 6 8 7 9 5 4 4 3 2 3 2 2 3 4 4 5 6 6 12 20 19 16 19 21 8
15 14 13 23 21 28 26 14 15 11 14 10 8 7 7 8 6 6 5 4 4 4 3 2 1 2 1 5 5 7 5 8 9 9 14 17 19 17
16 14 14 23 23 28 24 17 16 15 9 9 9 8 8 7 6 6 6 5 4 4 3 1 2 2 4 7 7 5 8 7 7 7 8 14 15 17
12 12 13 22 27 22 26 21 20 10 10 9 9 8 8 8 8 7 6 5 5 5 5 5 5 4 4 6 9 10 10 5 6 7 7 8 9 8
18 8 10 16 21 16 17 16 11 11 10 10 8 7 7 6 6 6 6 6 5 4 7 6 3 3 6 6 7 8 7 5 6 7 8 9 9 7
12 10 7 10 12 11 12 13 11 11 11 9 8 8 7 7 7 6 4 4 5 3 3 4 6 5 4 8 8 7 7 5 5 6 10 10 8 9
11 10 10 12 13 14 14 14 12 14 11 10 8 8 8 8 8 6 6 5 5 5 4 4 3 1 4 8 14 7 4 4 5 7 9 8 9 8
12 11 11 12 12 13 13 13 13 11 11 10 9 9 9 8 10 7 7 6 6 4 4 3 3 2 5 7 4 2 3 7 7 7 5 7 10 9
11 12 11 11 12 12 12 12 11 11 11 11 10 9 9 8 8 7 7 6 5 4 3 3 3 3 6 7 8 8 11 6 5 7 8 7 9 16
12 12 10 10 11 11 11 11 12 12 11 10 10 9 9 8 8 8 6 10 9 4 3 3 3 6 3 4 6 6 6 10 9 8 9 9 8 8
10 12 11 10 10 10 10 10 11 12 12 11 10 9 9 8 8 8 7 7 6 4 4 3 2 3 4 5 8 11 7 5 6 14 14 14 6 5
11 10 10 8 9 10 10 10 10 10 10 10 10 9 9 9 8 7 6 6 4 4 4 3 3 3 4 5 9 7 11 7 6 7 6 10 14 16
Wind_Direction
213 218 215 216 207 209 214 212 224 250 251 142 206 174 217 271 278 288 286 136 305 287 291 308 312 310 311 312 316 318 317 314 313 315 316 315 313 311
211 210 211 213 203 203 209 209 215 229 239 178 179 192 210 280 233 260 287 291 271 237 276 311 312 308 312 318 324 323 320 316 316 315 314 313 309 308
206 211 210 208 207 198 205 210 214 211 236 256 242 201 216 263 282 305 304 294 292 289 326 318 305 305 315 324 324 323 320 321 322 324 318 312 310 307
205 205 211 203 208 204 201 211 215 213 221 248 252 264 245 269 287 292 293 292 312 299 324 310 309 306 316 319 323 322 326 333 333 325 320 316 315 312
209 202 207 204 205 206 205 209 213 219 223 236 258 265 249 232 265 279 294 282 304 309 283 275 287 303 311 318 331 325 355 337 327 327 326 321 328 322
210 209 204 206 206 203 205 209 206 207 215 228 242 252 246 241 214 269 282 322 320 310 301 270 315 309 307 313 310 20 350 335 338 335 333 329 322 315
211 210 210 210 206 205 201 201 203 204 205 213 230 238 233 226 227 193 278 324 306 274 317 318 311 300 292 323 334 349 332 331 341 335 332 326 323 317
208 210 210 205 207 205 207 199 199 199 204 208 218 225 227 213 141 199 91 295 300 60 342 306 297 289 306 339 335 322 321 314 333 327 326 325 322 320
210 206 206 206 202 204 209 208 215 213 216 212 217 218 224 206 165 172 173 225 250 306 338 287 301 287 331 315 312 313 309 310 326 322 333 321 325 325
211 209 205 201 194 197 197 205 213 214 217 218 233 247 226 169 180 209 198 281 302 260 240 265 349 293 298 297 293 244 305 322 327 333 320 326 327 328
213 211 206 200 193 192 194 196 200 211 196 200 172 115 121 111 139 143 194 220 258 203 156 254 284 298 299 293 285 227 331 323 337 328 326 326 333 334
218 217 208 204 189 186 196 193 194 196 172 166 171 162 166 171 180 208 204 203 213 279 135 230 318 7 326 307 354 322 313 340 329 319 329 327 331 323
219 214 212 204 186 185 193 193 195 172 179 171 186 181 183 187 186 202 208 202 202 222 129 184 289 332 246 300 310 305 358 325 313 316 329 317 329 336
218 217 210 191 192 184 183 193 169 168 171 177 185 189 188 190 193 191 191 202 218 240 292 210 235 191 259 294 291 332 316 298 312 320 335 315 319 321
234 224 202 183 191 185 184 182 160 170 172 182 193 190 190 188 181 181 188 194 217 236 234 223 238 259 279 279 286 298 309 312 299 334 317 323 315 321
235 243 191 170 183 190 179 177 175 177 182 184 188 186 172 171 173 165 189 192 204 222 221 190 254 282 272 268 280 291 288 289 315 320 315 319 310 308
213 214 159 165 173 185 186 185 182 180 187 182 183 180 162 165 180 180 177 195 211 216 213 200 208 226 265 282 278 276 288 287 308 332 322 314 310 312
207 204 190 189 187 185 185 184 184 186 181 177 181 175 171 176 179 176 175 196 208 212 206 210 183 272 277 268 253 258 282 318 334 311 310 304 304 308
209 208 203 201 198 194 188 186 184 180 170 175 179 179 175 177 180 177 185 195 209 201 201 204 184 224 281 283 277 345 346 310 296 292 288 300 302 307
208 214 208 207 205 198 191 185 175 169 175 176 176 177 175 173 172 184 193 192 199 199 187 192 199 212 246 271 282 290 269 278 296 305 306 294 290 300
207 209 217 207 202 194 191 184 174 172 169 171 175 177 173 173 177 182 186 192 198 185 192 205 206 267 308 294 274 276 292 321 299 305 302 300 301 308
204 208 210 198 193 191 186 179 170 167 168 171 172 171 172 172 177 177 182 184 192 189 201 178 208 232 249 256 279 292 283 288 292 285 288 287 281 282
200 204 210 190 180 179 174 173 170 164 165 164 165 167 166 168 171 177 178 189 188 176 186 194 201 213 248 252 269 276 276 301 306 302 292 290 297 291